Flag Weather past 2 weeks in Vreden, North Rhine-Westphalia, Germany

Now
59 °F

Sunny.


Feels Like: 58 °F
Forecast: 40 / 50 °F
Wind: 5 mph from South

Location: Twenthe

Current Time: Nov 23, 2014 at 2:42:45 PM

Latest Report: Nov 23, 2014 at 2:00 PM


Visibility: 17 mi

Pressure: 30.00 "Hg

Humidity: 70%

Dew point: 49 °F

Location of VredenLocation

Historic Weather in Vreden — Graph

°F

Vreden temperature yesterday

Maximum temperature yesterday: 53 °F (at 2:00 PM)
Minimum temperature yesterday: 39 °F (at 2:00 AM)
Average temperature yesterday: 44 °F

Past Weeks' High & Low Weather Summary

 TemperatureHumidityPressure
High58 °F (Nov 23, 1:00 PM)100% (Nov 13, 2:00 AM)30.36 "Hg (Nov 13, 2:00 AM)
Low31 °F (Nov 21, 4:00 AM)64% (Nov 8, 3:00 PM)29.47 "Hg (Nov 16, 2:00 PM)
Average47 °F88%29.87 "Hg
* Reported Nov 8 1:00 PM — Nov 23 1:00 PM, Vreden, Weather by CustomWeather, © 2014

Note: Actual official high and low records may vary slightly from our data, if they occured in-between our weather recording intervals... More about our weather records

Advertising

Vreden weather history for previous 24 hours

 ConditionsComfort  
Time TempWeatherWind HumidityBarometerVisibility
1:00 PM
Nov 23
58 °FPassing clouds.3 mph70%30.03 "Hg17 mi
12:00 PM57 °FSunny.3 mph71%30.05 "Hg18 mi
11:00 AM54 °FSunny.2 mph79%30.06 "Hg9 mi
10:00 AM49 °FPassing clouds.2 mph86%30.07 "Hg7 mi
9:00 AM47 °FOvercast.1 mph90%30.08 "Hg6 mi
8:00 AM47 °FFog.2 mph91%30.07 "Hg6 mi
7:00 AM47 °FOvercast.2 mph90%30.07 "Hg6 mi
6:00 AM47 °FOvercast.2 mph90%30.07 "Hg6 mi
5:00 AM47 °FOvercast.1 mph90%30.08 "Hg6 mi
4:00 AM47 °FOvercast.1 mph88%30.08 "Hg6 mi
3:00 AM48 °FOvercast.2 mph87%30.07 "Hg7 mi
2:00 AM48 °FOvercast.1 mph88%30.08 "Hg7 mi
1:00 AM49 °FOvercast.1 mph86%30.08 "Hg7 mi
12:00 AM49 °FPassing clouds.2 mph86%30.08 "Hg7 mi
11:00 PM
Nov 22
49 °FOvercast.2 mph86%30.07 "Hg6 mi
10:00 PM48 °FOvercast.1 mph86%30.08 "Hg6 mi
9:00 PM47 °FFog.1 mph85%30.06 "Hg6 mi
8:00 PM45 °FFog.1 mph89%30.06 "Hg6 mi
7:00 PM47 °FPassing clouds.1 mph84%30.06 "Hg6 mi
6:00 PM48 °FPassing clouds.1 mph81%30.06 "Hg7 mi
5:00 PM49 °FClear.2 mph78%30.06 "Hg7 mi
4:00 PM50 °FSunny.2 mph74%30.06 "Hg9 mi
3:00 PM52 °FSunny.2 mph70%30.06 "Hg9 mi
2:00 PM53 °FPartly sunny.2 mph70%30.06 "Hg9 mi
Weather by CustomWeather, © 2014

See weather overviewHow to use our weather pages